Weather History for Poplar Bluff, MO

Change the Weather History Date:

Monday, June 17, 2013

  Actual Average Record
Temperature  
Mean Temperature 78 °F -  
Max Temperature 87 °F 86 °F 107 °F (1944)
Min Temperature 69 °F 63 °F 48 °F (1933)
Cooling Degree Days 13    
Growing Degree Days 28 (Base 50)    
Moisture  
Dew Point 69 °F    
Average Humidity 80    
Maximum Humidity 90    
Minimum Humidity 58    
Precipitation  
Precipitation 0.39 in - - ()
Sea Level Pressure  
Sea Level Pressure 29.89 in    
Wind  
Wind Speed 5 mph (South)    
Max Wind Speed 15 mph    
Max Gust Speed 22 mph    
Visibility 8 miles    
Events Rain , Thunderstorm    
Averages and records for this station are not official NWS values.
T = Trace of Precipitation, MM = Missing Value Source: NWS Daily Summary

Daily Weather History Graph

Daily Weather History Graph

Search for Another Location

Airport:

Trip Planner

Search our weather history database for the weather conditions in past years. The results will help you decide how hot, cold, wet, or windy it might be!

Date:

Astronomy

Jun. 17, 2013 Rise Set
Actual Time 5:42 AM CDT 8:22 PM CDT
Civil Twilight 5:11 AM CDT 8:53 PM CDT
Nautical Twilight 4:33 AM CDT 9:31 PM CDT
Astronomical Twilight 3:50 AM CDT 10:14 PM CDT
Moon 2:08 PM CDT (6/17) 1:09 AM CDT (6/17)
Length of Visible Light 15h 42m
Length of Day
14h 40m
First Quarter, 60% of the Moon is Illuminated
Jun 17
First Quarter
Jun 23
Full
Jun 29
Last Quarter
Jul 8
New
Jul 15
First Quarter

Hourly Weather History & Observations

Time (CDT) Temp. Heat Index Dew Point Humidity Pressure Visibility Wind Dir Wind Speed Gust Speed Precip Events Conditions
12:53 AM 75.0 °F - 71.1 °F 87% 29.92 in 8.0 mi Calm Calm - N/A   Clear
1:53 AM 75.0 °F - 71.1 °F 87% 29.89 in 9.0 mi South 3.5 mph - N/A   Clear
2:53 AM 75.0 °F - 70.0 °F 84% 29.90 in 10.0 mi Calm Calm - N/A   Clear
3:53 AM 73.0 °F - 70.0 °F 90% 29.91 in 8.0 mi Calm Calm - N/A   Clear
4:53 AM 73.0 °F - 70.0 °F 90% 29.89 in 7.0 mi Calm Calm - N/A   Clear
5:53 AM 73.9 °F - 69.1 °F 85% 29.91 in 7.0 mi Calm Calm - N/A   Overcast
6:53 AM 75.0 °F - 70.0 °F 84% 29.91 in 5.0 mi Calm Calm - N/A   Haze
7:53 AM 78.1 °F - 70.0 °F 76% 29.90 in 6.0 mi Calm Calm - N/A   Haze
8:53 AM 81.0 °F 85.2 °F 72.0 °F 74% 29.90 in 7.0 mi Variable 3.5 mph - N/A   Partly Cloudy
9:53 AM 84.0 °F 90.2 °F 73.0 °F 69% 29.90 in 10.0 mi SSW 6.9 mph - N/A   Clear
10:53 AM 84.9 °F 89.4 °F 70.0 °F 61% 29.91 in 10.0 mi SW 8.1 mph - N/A   Clear
11:53 AM 84.9 °F 88.8 °F 69.1 °F 59% 29.91 in 10.0 mi SSW 6.9 mph - N/A   Clear
12:53 PM 86.0 °F 91.5 °F 71.1 °F 61% 29.88 in 10.0 mi SW 8.1 mph - N/A   Clear
1:53 PM 86.0 °F 92.2 °F 72.0 °F 63% 29.87 in 10.0 mi SW 8.1 mph - N/A   Clear
2:17 PM 87.8 °F 93.8 °F 71.6 °F 58% 29.87 in 9.0 mi SW 10.4 mph - N/A Thunderstorm Clear
2:32 PM 82.4 °F 86.3 °F 69.8 °F 66% 29.88 in 10.0 mi South 15.0 mph 19.6 mph N/A   Scattered Clouds
2:41 PM 78.8 °F - 69.8 °F 74% 29.87 in 10.0 mi South 12.7 mph 21.9 mph N/A   Mostly Cloudy
2:53 PM 80.1 °F 83.2 °F 70.0 °F 71% 29.86 in 8.0 mi South 9.2 mph - 0.00 in Rain Light Rain
3:08 PM 80.6 °F 84.6 °F 71.6 °F 74% 29.87 in 10.0 mi South 11.5 mph - 0.00 in Rain Light Rain
3:53 PM 80.1 °F 83.6 °F 71.1 °F 74% 29.86 in 10.0 mi SSW 13.8 mph - 0.00 in   Overcast
4:26 PM 78.8 °F - 69.8 °F 74% 29.88 in 10.0 mi SSW 12.7 mph - N/A   Mostly Cloudy
4:33 PM 78.8 °F - 69.8 °F 74% 29.88 in 10.0 mi SSW 8.1 mph - 0.00 in Rain Light Rain
4:53 PM 75.9 °F - 70.0 °F 82% 29.87 in 9.0 mi SSW 10.4 mph - 0.01 in Rain Light Rain
5:31 PM 75.2 °F - 71.6 °F 89% 29.88 in 10.0 mi SW 3.5 mph - 0.01 in   Overcast
5:53 PM 75.9 °F - 71.1 °F 85% 29.86 in 10.0 mi WSW 3.5 mph - 0.01 in   Overcast
6:14 PM 73.4 °F - 69.8 °F 88% 29.87 in 4.0 mi North 12.7 mph 17.3 mph 0.02 in Rain Light Rain
6:25 PM 73.4 °F - 69.8 °F 88% 29.87 in 10.0 mi NNE 10.4 mph - 0.02 in Rain Light Rain
6:53 PM 71.1 °F - 68.0 °F 90% 29.88 in 10.0 mi NE 12.7 mph - 0.02 in   Overcast
7:01 PM 71.6 °F - 68.0 °F 88% 29.90 in 10.0 mi NE 10.4 mph - N/A   Overcast
7:13 PM 71.6 °F - 68.0 °F 88% 29.89 in 2.5 mi NE 11.5 mph - 0.05 in Rain Heavy Rain
7:24 PM 71.6 °F - 68.0 °F 88% 29.90 in 6.0 mi NNE 9.2 mph - 0.08 in Rain Light Rain
7:53 PM 71.1 °F - 68.0 °F 90% 29.89 in 3.0 mi NNE 11.5 mph - 0.12 in Rain Rain
8:04 PM 71.6 °F - 68.0 °F 88% 29.91 in 2.5 mi NNE 10.4 mph - 0.04 in Rain Heavy Rain
8:14 PM 71.6 °F - 68.0 °F 88% 29.91 in 3.0 mi NNE 9.2 mph - 0.11 in Rain Heavy Rain
8:53 PM 71.1 °F - 68.0 °F 90% 29.91 in 4.0 mi NNE 13.8 mph - 0.22 in Rain Rain
9:10 PM 71.6 °F - 66.2 °F 83% 29.92 in 8.0 mi NNE 10.4 mph 21.9 mph 0.01 in   Overcast
9:34 PM 69.8 °F - 66.2 °F 88% 29.93 in 10.0 mi NNE 12.7 mph - 0.01 in   Overcast
9:53 PM 70.0 °F - 66.0 °F 87% 29.91 in 10.0 mi NE 8.1 mph - 0.01 in   Overcast
10:53 PM 70.0 °F - 64.9 °F 84% 29.90 in 10.0 mi Calm Calm - N/A   Overcast
11:53 PM 69.1 °F - 64.9 °F 87% 29.88 in 10.0 mi Calm Calm - N/A   Mostly Cloudy